www.pogodaiklimat.ru

Погода и климат >> Архив погоды >> Россия >> Чукотка >> Чаун


ПОГОДА в Чауне

  • Прогноз погоды в Чауне
  • Монитор погоды в Чауне

АРХИВ ПОГОДЫ в Чауне

Время (UTC), дата Ветер
(напр.,м/с)
 
Видим.   Явления Облачность Т
(С)
Тd
(С)
f
(%)
Тe
(С)
Тes
(С)
Комфортность P
(гПа)
Po
(гПа)
Тmin
(С)
Tmax
(С)
R
(мм)
R24
(мм)
S
(см)
00 17.01 СЗ 10-12
{13}
4000 м слаб. снег {метель} 10/6 150 м
[Frnb As op]
-27.3 -29.8 79 -43 -43 опасность
обморожения
1020.6 1019.9
03 17.01 СЗ 10-12
{14}
4000 м слаб. снег {метель} 10/4 200 м
[Frnb As op]
-27.0 -29.5 79 -43 -43 опасность
обморожения
1020.7 1020.0
06 17.01 СЗ 8-10
{12}
4000 м слаб. снег {метель} 10/5 200 м
[Frnb As op]
-27.0 -29.6 78 -42 -42 опасность
обморожения
1021.2 1020.5
09 17.01 СЗ 7
{10}
20 км позёмок {снег} 9/4 200 м
[St Ac trans]
-27.3 -29.9 78 -41 -41 опасность
обморожения
1021.2 1020.5 -26.8 0.7
12 17.01 СЗ 7
{9}
20 км позёмок {снег} 9/4 200 м
[St Ac trans]
-27.8 -30.9 75 -42 -42 опасность
обморожения
1020.8 1020.1
15 17.01 СЗ 7
{9}
20 км позёмок 9/4 200 м
[St Ac trans]
-28.2 -31.2 75 -42 -42 опасность
обморожения
1020.0 1019.3
18 17.01 СЗ 6
{8}
20 км позёмок 9/4 200 м
[St Ac trans]
-27.9 -30.8 76 -41 -41 опасность
обморожения
1019.0 1018.3
21 17.01 СЗ 6
{8}
20 км позёмок 10/5 200 м
[St Ac und]
-27.2 -29.6 80 -40 -40 опасность
обморожения
1018.6 1017.9 -28.4 20
00 18.01 СЗ 6
{8}
4000 м слаб. снег {метель} 10/5 200 м
[Frnb As op]
-26.7 -29.1 80 -39 -39 опасность
обморожения
1018.1 1017.4
03 18.01 СЗ 5
{7}
4000 м слаб. снег {метель} 10/4 200 м
[Frnb As op]
-26.5 -29.0 79 -38 -38 опасность
обморожения
1017.7 1017.0
06 18.01 СЗ 5
{7}
4000 м слаб. снег {метель} 10/4 200 м
[Frnb As op]
-26.1 -28.5 80 -38 -38 опасность
обморожения
1017.3 1016.6
09 18.01 З 2
{6}
4000 м слаб. снег {метель} 10/4 200 м
[Frnb As op]
-25.8 -28.2 80 -33 -33 опасность
обморожения
1017.9 1017.2 -25.8 0.8
12 18.01 ЮЗ 1
{3}
20 км {снег, метель} 10/0
[Cs]
-26.6 -29.0 80 -30 -30 1018.7 1018.0
15 18.01 Ю 2
{4}
20 км 10/0
[Cs]
-32.0 -34.3 80 -40 -40 опасность
обморожения
1019.0 1018.3
18 18.01 Ю 2
{3}
20 км 10/0
[Cs]
-34.3 -37.8 70 -42 -42 опасность
обморожения
1019.9 1019.2
21 18.01 ЮВ 3
{5}
20 км 9/0
[Ci fib]
-35.9 -39.5 69 -47 -47 опасность
обморожения
1020.8 1020.1 -36.0 0.0 20
00 19.01 ЮВ 1
{5}
20 км 4/0
[Ci fib]
-36.7 -41.0 64 -42 -42 опасность
обморожения
1021.6 1020.9 -37.0
03 19.01 ЮВ 3
{5}
20 км 4/0
[Ci fib]
-37.5 -41.7 65 1021.2
06 19.01 ЮВ 2
{4}
20 км 4/0
[Ci fib]
-38.5 -42.7 64 -47 -47 опасность
обморожения
1021.5 1020.8
09 19.01 ЮВ 3
{4}
20 км 4/0
[Ci fib]
-38.6 -42.8 64 -50 -50 опасность
обморожения
1022.5 1021.8 -35.8
12 19.01 Ю 3
{4}
20 км 4/0
[Ci fib]
-37.4 -41.5 65 -49 -49 опасность
обморожения
1023.2 1022.5
15 19.01 ЮВ 4
{6}
20 км 6/0
[Ci fib]
-35.7 -39.4 69 -48 -48 опасность
обморожения
1023.3 1022.6
18 19.01 ЮВ 5
{7}
20 км 9/0
[Ci fib]
-32.6 -36.0 72 -46 -46 опасность
обморожения
1023.4 1022.7
21 19.01 Ю 4
{6}
20 км 9/0
[Ci fib]
-32.1 -35.7 70 -44 -44 опасность
обморожения
1024.2 1023.5 -38.6 20
00 20.01 Ю 4
{6}
20 км 8/0
[Ci fib]
-34.2 -37.9 69 -46 -46 опасность
обморожения
1024.9 1024.2
03 20.01 ЮВ 5
{6}
20 км 10/0
[Cs]
-33.3 -36.9 70 -47 -47 опасность
обморожения
1024.9 1024.2
06 20.01 ЮВ 5
{6}
20 км 10/0
[Cs]
-32.3 -35.7 72 -45 -45 опасность
обморожения
1025.1 1024.4
09 20.01 В 5
{7}
20 км 3/0
[Ci fib]
-33.8 -37.5 69 -47 -47 опасность
обморожения
1025.7 1025.0 -30.3
12 20.01 ЮВ 5
{7}
20 км 3/0
[Ci fib]
-34.3 -37.8 70 -48 -48 опасность
обморожения
1026.2 1025.5
15 20.01 ЮВ 5
{7}
20 км 3/0
[Ci fib]
-34.5 -38.2 69 -48 -48 опасность
обморожения
1025.7 1025.0
18 20.01 ЮВ 4
{6}
20 км 4/0
[Ci fib]
-34.2 -37.8 70 -46 -46 опасность
обморожения
1024.6 1023.9
21 20.01 ЮВ 4
{6}
20 км 1/0
[Ci fib]
-33.0 -36.7 69 -45 -45 опасность
обморожения
1022.6 1021.9 -34.6 20
00 21.01 Ю 6
{8}
20 км позёмок 1/0
[Ci fib]
-33.0 -36.7 69 -47 -47 опасность
обморожения
1021.8 1021.1
03 21.01 В 6
{8}
20 км позёмок 4/0
[Ci fib]
-31.6 -34.5 75 -46 -46 опасность
обморожения
1020.6 1019.9
06 21.01 З 4
{7}
20 км {метель} 3/0
[Ci fib]
-30.4 -33.4 75 -42 -42 опасность
обморожения
1021.8 1021.1
09 21.01 ЮЗ 4
{5}
20 км 3/0
[Ci fib]
-28.1 -31.1 75 -39 -39 опасность
обморожения
1023.0 1022.3 -27.8
12 21.01 Ю 4
{5}
20 км 3/0
[Ci fib]
-32.1 -35.7 70 -44 -44 опасность
обморожения
1024.1 1023.4
15 21.01 Ю 4
{5}
20 км 9/0
[Ci fib]
-32.3 -35.9 70 -44 -44 опасность
обморожения
1024.7 1024.0
18 21.01 ЮЗ 4
{5}
20 км 9/0
[Ci fib]
-30.8 -33.8 75 -42 -42 опасность
обморожения
1025.3 1024.6
21 21.01 ЮЗ 4
{5}
20 км 9/0
[Ac trans]
-25.9 -28.5 79 -36 -36 опасность
обморожения
1026.3 1025.6 -32.7 20
00 22.01 ЮВ 4
{5}
20 км 9/0
[Ac trans]
-24.0 -26.5 80 -34 -34 опасность
обморожения
1026.3 1025.6
03 22.01 ЮВ 5
{5}
20 км 10/0
[Ac und]
-24.2 -26.6 80 -35 -35 опасность
обморожения
1025.8 1025.1
06 22.01 В 5
{6}
20 км 9/0
[Ac trans]
-28.7 -31.7 75 -41 -41 опасность
обморожения
1025.8 1025.1
09 22.01 ЮВ 5
{6}
20 км 8/0
[Ac lent Ci fib]
-31.1 -34.2 74 -44 -44 опасность
обморожения
1025.6 1024.9 -23.8
12 22.01 Ю 2
{5}
20 км 8/0
[Ac lent Ci fib]
-31.1 -34.1 75 -39 -39 опасность
обморожения
1024.8 1024.1
15 22.01 ЮВ 2
{4}
20 км 4/0
[Ci fib]
-32.6 -35.9 72 -41 -41 опасность
обморожения
1024.0 1023.3
18 22.01 В 1
{4}
20 км 4/0
[Ci fib]
-33.4 -36.9 71 -38 -38 опасность
обморожения
1024.1 1023.4
21 22.01 ЮВ 2
{5}
20 км 4/0
[Ci fib]
-34.2 -37.8 70 -42 -42 опасность
обморожения
1023.9 1023.2 -34.4 20
00 23.01 ЮВ 5
{5}
20 км 4/0
[Ci fib]
-34.9 -38.4 70 -49 -49 опасность
обморожения
1023.9 1023.2 -35.3
03 23.01 ЮЗ 5
{5}
20 км 4/0
[Ci fib]
-33.5 -37.2 69 -47 -47 опасность
обморожения
1023.9 1023.2
06 23.01 Ю 5
{5}
20 км 4/0
[Ci fib]
-32.1 -35.7 70 -45 -45 опасность
обморожения
1024.6 1023.9
09 23.01 ЮВ 5
{5}
20 км 6/0
[Ac trans Ci fib]
-28.9 -32.0 74 -41 -41 опасность
обморожения
1025.2 1024.5 -28.9
12 23.01 В 5
{5}
20 км 6/0
[Ac trans Ci fib]
-28.8 -31.8 75 -41 -41 опасность
обморожения
1025.1 1024.4
15 23.01 В 5
{5}
20 км 6/0
[Ac trans Ci fib]
-27.7 -30.8 75 -40 -40 опасность
обморожения
1025.0 1024.3
18 23.01 СВ 5
{5}
20 км 6/0
[Ac trans]
-27.0 -29.4 80 -39 -39 опасность
обморожения
1025.0 1024.3
21 23.01 В 5
{5}
20 км 10/0
[Ac und]
-26.5 -29.0 79 -38 -38 опасность
обморожения
1025.5 1024.8 -29.0 20

 

Местоположение метеостанции Чаун (Чукотка, Россия): широта 68.88 долгота 170.70 высота над уровнем моря 5 м.

В архиве по умолчанию представлена погода в Чауне за последнюю неделю. Архивные данные за месяц целиком и за предыдущие месяцы, начиная с января 2011 года, Вы можете получить, выбрав интересующий диапазон дат из раскрывающегося списка и нажав кнопку "Ввод!".


*Определитесь, кто Вы:
робот инопланетянин человек

Внимание! Время в таблицах - всемирное. Для получения местного времени необходимо прибавить поправку, которая равна 12 ч.

Смотрите также архив погоды в соседних городах и на ближайших метеорологических станциях:

Погода на 21 км (Чукотка, Россия) (84 км)
Погода в Комсомольской (Чукотка, Россия) (89 км)
Погода в Певеке (Чукотка, Россия) (93 км)
Погода в Майской (Чукотка, Россия) (117 км)
Погода в Валькаркае (Чукотка, Россия) (134 км)
Погода в Паляваам-Глубокой (Чукотка, Россия) (137 км)
Погода на Айон Острове (Чукотка, Россия) (160 км)
Погода в Раучуе (Чукотка, Россия) (180 км)
Погода в Билибино (Чукотка, Россия) (198 км)
Погода в Илирнее (Чукотка, Россия) (215 км)

Пояснения к столбцам:

Ветер - указаны скорость ветра в м/с - средняя за 10 мин, порывы в срок и между сроками (в фигурных скобках) и направление, откуда дует ветер: С - северный, СВ - северо-восточный, В - восточный, ЮВ - юго-восточный, Ю - южный, ЮЗ - юго-западный, З - западный, СЗ - северо-западный.
Видимость - горизонтальная дальность видимости в метрах или километрах. При видимости от 1 до 10 км при отсутствии осадков обычно наблюдается дымка, при ухудшении видимости до 1 км и менее - туман. В сухую погоду видимость может ухудшаться дымом, пылью или мглою.
Явления - указаны атмосферные явления, наблюдавшиеся в срок или в последний час перед сроком; фигурными скобками обозначены явления, наблюдавшиеся между сроками (за 1-3 часа до срока); квадратными скобками обозначены град или гололедные отложения с указанием их диаметра в мм.
Облачность - указаны через наклонную черту общая и нижняя облачность в баллах и высота нижней границы облаков в метрах; квадратными скобками обозначены формы облаков: Ci - перистые, Cs - перисто-слоистые, Cc - перисто-кучевые, Ac - высококучевые, As - высокослоистые, Sc - слоисто-кучевые, Ns - слоисто-дождевые, Cu - кучевые, Cb - кучево-дождевые. Подробнее классификацию облаков см. в Атласе облаков (PDF).
T - Температура воздуха - температура, измеренная на высоте 2 м над землей.
Td - Температура точки росы - температура, при понижении до которой содержащийся в воздухе водяной пар достигнет насыщения.
f - Относительная влажность воздуха - влажноcть воздуха, измеренная на высоте 2 м над землей.
Te - Эффективная температура - температура, которую ощущает одетый по сезону человек в тени. Характеристика душности погоды. При расчете учитывается влияние влажности воздуха и скорости ветра на теплоощущения человека.
Tes - Эффективная температура на солнце - температура, которую ощущает человек, с поправкой на солнечный нагрев. Характеристика знойности погоды. Зависит от высоты солнца над горизонтом, облачности и скорости ветра. Ночью, в пасмурную погоду, а также при ветре 12 м/с и более поправка равна нулю.
P - Атмосферное давление - приведенное к уровню моря атмосферное давление.
Po - Атмосферное давление - измеренное на уровне метеостанции атмосферное давление.
Tmin - Минимальная температура - минимум температуры воздуха на высоте 2 м над землей.
Tmax - Максимальная температура - максимум температуры воздуха на высоте 2 м над землей.
R - Количество осадков - Количество выпавших осадков за период времени, мм. При наведении курсора мыши на число - период времени, за который выпало указанное количество осадков.
R24 - Количество осадков - Количество выпавших осадков за 24 часа, мм.
S - Снежный покров - Высота снежного покрова, см. При наведении курсора мыши на число - состояние снежного покрова и степень покрытия местности в баллах.